Year,Month,Day,Hour,Minute,Value (Times are PST for temperature in C)
2008,07,02,00,00,13.40
2008,07,02,00,01,13.40
2008,07,02,00,02,13.40
2008,07,02,00,03,13.40
2008,07,02,00,04,13.40
2008,07,02,00,05,13.40
2008,07,02,00,06,13.40
2008,07,02,00,07,13.40
2008,07,02,00,08,13.40
2008,07,02,00,09,13.40
2008,07,02,00,10,13.40
2008,07,02,00,11,13.40
2008,07,02,00,12,13.40
2008,07,02,00,13,13.30
2008,07,02,00,14,13.20
2008,07,02,00,15,13.20
2008,07,02,00,16,13.10
2008,07,02,00,17,13.10
2008,07,02,00,18,13.00
2008,07,02,00,19,13.00
2008,07,02,00,20,13.00
2008,07,02,00,21,12.90
2008,07,02,00,22,12.90
2008,07,02,00,23,12.90
2008,07,02,00,24,12.90
2008,07,02,00,25,12.90
2008,07,02,00,26,12.90
2008,07,02,00,27,12.90
2008,07,02,00,28,12.90
2008,07,02,00,29,12.90
2008,07,02,00,30,12.90
2008,07,02,00,31,12.90
2008,07,02,00,32,12.90
2008,07,02,00,33,12.90
2008,07,02,00,34,12.80
2008,07,02,00,35,12.80
2008,07,02,00,36,12.80
2008,07,02,00,37,12.80
2008,07,02,00,38,12.80
2008,07,02,00,39,12.80
2008,07,02,00,40,12.80
2008,07,02,00,41,12.80
2008,07,02,00,42,12.90
2008,07,02,00,43,12.90
2008,07,02,00,44,12.90
2008,07,02,00,45,12.90
2008,07,02,00,46,12.90
2008,07,02,00,47,12.80
2008,07,02,00,48,12.80
2008,07,02,00,49,12.80
2008,07,02,00,50,12.90
2008,07,02,00,51,12.90
2008,07,02,00,52,12.90
2008,07,02,00,53,12.90
2008,07,02,00,54,12.90
2008,07,02,00,55,12.90
2008,07,02,00,56,12.90
2008,07,02,00,57,12.90
2008,07,02,00,58,12.90
2008,07,02,00,59,12.90
2008,07,02,01,00,12.90
2008,07,02,01,01,12.90
2008,07,02,01,02,12.80
2008,07,02,01,03,12.70
2008,07,02,01,04,12.60
2008,07,02,01,05,12.50
2008,07,02,01,06,12.40
2008,07,02,01,07,12.30
2008,07,02,01,08,12.20
2008,07,02,01,09,12.10
2008,07,02,01,10,12.10
2008,07,02,01,11,12.00
2008,07,02,01,12,11.90
2008,07,02,01,13,11.80
2008,07,02,01,14,11.80
2008,07,02,01,15,11.70
2008,07,02,01,16,11.70
2008,07,02,01,17,11.60
2008,07,02,01,18,11.60
2008,07,02,01,19,11.60
2008,07,02,01,20,11.60
2008,07,02,01,21,11.50
2008,07,02,01,22,11.50
2008,07,02,01,23,11.40
2008,07,02,01,24,11.40
2008,07,02,01,25,11.40
2008,07,02,01,26,11.40
2008,07,02,01,27,11.30
2008,07,02,01,28,11.30
2008,07,02,01,29,11.30
2008,07,02,01,30,11.30
2008,07,02,01,31,11.30
2008,07,02,01,32,11.30
2008,07,02,01,33,11.30
2008,07,02,01,34,11.20
2008,07,02,01,35,11.20
2008,07,02,01,36,11.20
2008,07,02,01,37,11.20
2008,07,02,01,38,11.10
2008,07,02,01,39,11.10
2008,07,02,01,40,11.10
2008,07,02,01,41,11.00
2008,07,02,01,42,11.00
2008,07,02,01,43,11.00
2008,07,02,01,44,10.90
2008,07,02,01,45,10.90
2008,07,02,01,46,10.90
2008,07,02,01,47,10.80
2008,07,02,01,48,10.80
2008,07,02,01,49,10.80
2008,07,02,01,50,10.80
2008,07,02,01,51,10.80
2008,07,02,01,52,10.80
2008,07,02,01,53,10.80
2008,07,02,01,54,10.80
2008,07,02,01,55,10.80
2008,07,02,01,56,10.80
2008,07,02,01,57,10.80
2008,07,02,01,58,10.80
2008,07,02,01,59,10.90
2008,07,02,02,00,10.80
2008,07,02,02,01,10.90
2008,07,02,02,02,10.90
2008,07,02,02,03,10.90
2008,07,02,02,04,10.90
2008,07,02,02,05,10.90
2008,07,02,02,06,10.90
2008,07,02,02,07,11.00
2008,07,02,02,08,11.00
2008,07,02,02,09,11.00
2008,07,02,02,10,11.10
2008,07,02,02,11,11.10
2008,07,02,02,12,11.10
2008,07,02,02,13,11.10
2008,07,02,02,14,11.10
2008,07,02,02,15,11.10
2008,07,02,02,16,11.10
2008,07,02,02,17,11.10
2008,07,02,02,18,11.10
2008,07,02,02,19,11.10
2008,07,02,02,20,11.10
2008,07,02,02,21,11.10
2008,07,02,02,22,11.10
2008,07,02,02,23,11.10
2008,07,02,02,24,11.10
2008,07,02,02,25,11.10
2008,07,02,02,26,11.10
2008,07,02,02,27,11.10
2008,07,02,02,28,11.10
2008,07,02,02,29,11.10
2008,07,02,02,30,11.10
2008,07,02,02,31,11.10
2008,07,02,02,32,11.10
2008,07,02,02,33,11.10
2008,07,02,02,34,11.10
2008,07,02,02,35,11.10
2008,07,02,02,36,11.10
2008,07,02,02,37,11.10
2008,07,02,02,38,11.10
2008,07,02,02,39,11.10
2008,07,02,02,40,11.10
2008,07,02,02,41,11.10
2008,07,02,02,42,11.10
2008,07,02,02,43,11.10
2008,07,02,02,44,11.00
2008,07,02,02,45,11.00
2008,07,02,02,46,11.00
2008,07,02,02,47,11.00
2008,07,02,02,48,11.00
2008,07,02,02,49,11.00
2008,07,02,02,50,11.00
2008,07,02,02,51,10.90
2008,07,02,02,52,10.90
2008,07,02,02,53,11.00
2008,07,02,02,54,11.00
2008,07,02,02,55,11.00
2008,07,02,02,56,11.00
2008,07,02,02,57,11.00
2008,07,02,02,58,11.00
2008,07,02,02,59,11.00
2008,07,02,03,00,11.00
2008,07,02,03,01,11.00
2008,07,02,03,02,11.00
2008,07,02,03,03,11.00
2008,07,02,03,04,11.00
2008,07,02,03,05,11.00
2008,07,02,03,06,11.10
2008,07,02,03,07,11.10
2008,07,02,03,08,11.10
2008,07,02,03,09,11.10
2008,07,02,03,10,11.10
2008,07,02,03,11,11.10
2008,07,02,03,12,11.10
2008,07,02,03,13,11.10
2008,07,02,03,14,11.10
2008,07,02,03,15,11.10
2008,07,02,03,16,11.10
2008,07,02,03,17,11.10
2008,07,02,03,18,11.10
2008,07,02,03,19,11.10
2008,07,02,03,20,11.10
2008,07,02,03,21,11.10
2008,07,02,03,22,11.10
2008,07,02,03,23,11.10
2008,07,02,03,24,11.20
2008,07,02,03,25,11.20
2008,07,02,03,26,11.20
2008,07,02,03,27,11.20
2008,07,02,03,28,11.20
2008,07,02,03,29,11.20
2008,07,02,03,30,11.20
2008,07,02,03,31,11.20
2008,07,02,03,32,11.20
2008,07,02,03,33,11.20
2008,07,02,03,34,11.20
2008,07,02,03,35,11.20
2008,07,02,03,36,11.20
2008,07,02,03,37,11.20
2008,07,02,03,38,11.20
2008,07,02,03,39,11.20
2008,07,02,03,40,11.20
2008,07,02,03,41,11.20
2008,07,02,03,42,11.20
2008,07,02,03,43,11.20
2008,07,02,03,44,11.20
2008,07,02,03,45,11.20
2008,07,02,03,46,11.20
2008,07,02,03,47,11.20
2008,07,02,03,48,11.30
2008,07,02,03,49,11.30
2008,07,02,03,50,11.30
2008,07,02,03,51,11.30
2008,07,02,03,52,11.30
2008,07,02,03,53,11.30
2008,07,02,03,54,11.30
2008,07,02,03,55,11.20
2008,07,02,03,56,11.20
2008,07,02,03,57,11.20
2008,07,02,03,58,11.20
2008,07,02,03,59,11.20
2008,07,02,04,00,11.20
2008,07,02,04,01,11.20
2008,07,02,04,02,11.20
2008,07,02,04,03,11.20
2008,07,02,04,04,11.20
2008,07,02,04,05,11.20
2008,07,02,04,06,11.20
2008,07,02,04,07,11.20
2008,07,02,04,08,11.20
2008,07,02,04,09,11.20
2008,07,02,04,10,11.20
2008,07,02,04,11,11.20
2008,07,02,04,12,11.20
2008,07,02,04,13,11.20
2008,07,02,04,14,11.20
2008,07,02,04,15,11.20
2008,07,02,04,16,11.20
2008,07,02,04,17,11.20
2008,07,02,04,18,11.20
2008,07,02,04,19,11.20
2008,07,02,04,20,11.20
2008,07,02,04,21,11.20
2008,07,02,04,22,11.20
2008,07,02,04,23,11.20
2008,07,02,04,24,11.20
2008,07,02,04,25,11.20
2008,07,02,04,26,11.20
2008,07,02,04,27,11.20
2008,07,02,04,28,11.20
2008,07,02,04,29,11.20
2008,07,02,04,30,11.20
2008,07,02,04,31,11.20
2008,07,02,04,32,11.20
2008,07,02,04,33,11.20
2008,07,02,04,34,11.20
2008,07,02,04,35,11.20
2008,07,02,04,36,11.20
2008,07,02,04,37,11.20
2008,07,02,04,38,11.20
2008,07,02,04,39,11.20
2008,07,02,04,40,11.20
2008,07,02,04,41,11.20
2008,07,02,04,42,11.20
2008,07,02,04,43,11.20
2008,07,02,04,44,11.20
2008,07,02,04,45,11.20
2008,07,02,04,46,11.20
2008,07,02,04,47,11.10
2008,07,02,04,48,11.10
2008,07,02,04,49,11.10
2008,07,02,04,50,11.00
2008,07,02,04,51,11.00
2008,07,02,04,52,10.90
2008,07,02,04,53,10.90
2008,07,02,04,54,10.90
2008,07,02,04,55,10.80
2008,07,02,04,56,10.80
2008,07,02,04,57,10.80
2008,07,02,04,58,10.70
2008,07,02,04,59,10.70
2008,07,02,05,00,10.70
2008,07,02,05,01,10.70
2008,07,02,05,02,10.60
2008,07,02,05,03,10.60
2008,07,02,05,04,10.60
2008,07,02,05,05,10.60
2008,07,02,05,06,10.60
2008,07,02,05,07,10.60
2008,07,02,05,08,10.60
2008,07,02,05,09,10.60
2008,07,02,05,10,10.60
2008,07,02,05,11,10.60
2008,07,02,05,12,10.50
2008,07,02,05,13,10.50
2008,07,02,05,14,10.50
2008,07,02,05,15,10.50
2008,07,02,05,16,10.50
2008,07,02,05,17,10.50
2008,07,02,05,18,10.50
2008,07,02,05,19,10.50
2008,07,02,05,20,10.50
2008,07,02,05,21,10.50
2008,07,02,05,22,10.50
2008,07,02,05,23,10.50
2008,07,02,05,24,10.50
2008,07,02,05,25,10.50
2008,07,02,05,26,10.50
2008,07,02,05,27,10.60
2008,07,02,05,28,10.60
2008,07,02,05,29,10.60
2008,07,02,05,30,10.60
2008,07,02,05,31,10.60
2008,07,02,05,32,10.60
2008,07,02,05,33,10.60
2008,07,02,05,34,10.70
2008,07,02,05,35,10.70
2008,07,02,05,36,10.70
2008,07,02,05,37,10.70
2008,07,02,05,38,10.70
2008,07,02,05,39,10.70
2008,07,02,05,40,10.70
2008,07,02,05,41,10.70
2008,07,02,05,42,10.80
2008,07,02,05,43,10.80
2008,07,02,05,44,10.80
2008,07,02,05,45,10.80
2008,07,02,05,46,10.80
2008,07,02,05,47,10.80
2008,07,02,05,48,10.80
2008,07,02,05,49,10.80
2008,07,02,05,50,10.80
2008,07,02,05,51,10.90
2008,07,02,05,52,10.90
2008,07,02,05,53,10.90
2008,07,02,05,54,10.90
2008,07,02,05,55,10.90
2008,07,02,05,56,10.90
2008,07,02,05,57,10.90
2008,07,02,05,58,10.90
2008,07,02,05,59,10.90
2008,07,02,06,00,10.90
2008,07,02,06,01,10.90
2008,07,02,06,02,10.90
2008,07,02,06,03,10.90
2008,07,02,06,04,10.90
2008,07,02,06,05,10.90
2008,07,02,06,06,10.90
2008,07,02,06,07,10.90
2008,07,02,06,08,10.90
2008,07,02,06,09,10.90
2008,07,02,06,10,10.90
2008,07,02,06,11,10.90
2008,07,02,06,12,10.90
2008,07,02,06,13,10.90
2008,07,02,06,14,10.90
2008,07,02,06,15,10.90
2008,07,02,06,16,10.90
2008,07,02,06,17,10.90
2008,07,02,06,18,10.90
2008,07,02,06,19,10.90
2008,07,02,06,20,10.90
2008,07,02,06,21,10.90
2008,07,02,06,22,10.90
2008,07,02,06,23,10.90
2008,07,02,06,24,10.90
2008,07,02,06,25,10.90
2008,07,02,06,26,11.00
2008,07,02,06,27,11.00
2008,07,02,06,28,11.00
2008,07,02,06,29,11.10
2008,07,02,06,30,11.10
2008,07,02,06,31,11.10
2008,07,02,06,32,11.20
2008,07,02,06,33,11.20
2008,07,02,06,34,11.20
2008,07,02,06,35,11.30
2008,07,02,06,36,11.30
2008,07,02,06,37,11.30
2008,07,02,06,38,11.40
2008,07,02,06,39,11.40
2008,07,02,06,40,11.50
2008,07,02,06,41,11.50
2008,07,02,06,42,11.60
2008,07,02,06,43,11.70
2008,07,02,06,44,11.70
2008,07,02,06,45,11.80
2008,07,02,06,46,11.80
2008,07,02,06,47,11.90
2008,07,02,06,48,11.90
2008,07,02,06,49,12.00
2008,07,02,06,50,12.00
2008,07,02,06,51,12.10
2008,07,02,06,52,12.10
2008,07,02,06,53,12.20
2008,07,02,06,54,12.20
2008,07,02,06,55,12.30
2008,07,02,06,56,12.30
2008,07,02,06,57,12.40
2008,07,02,06,58,12.40
2008,07,02,06,59,12.50
2008,07,02,07,00,12.50
2008,07,02,07,01,12.50
2008,07,02,07,02,12.60
2008,07,02,07,03,12.60
2008,07,02,07,04,12.70
2008,07,02,07,05,12.80
2008,07,02,07,06,12.90
2008,07,02,07,07,13.00
2008,07,02,07,08,13.00
2008,07,02,07,09,13.10
2008,07,02,07,10,13.10
2008,07,02,07,11,13.20
2008,07,02,07,12,13.20
2008,07,02,07,13,13.20
2008,07,02,07,14,13.20
2008,07,02,07,15,13.20
2008,07,02,07,16,13.20
2008,07,02,07,17,13.20
2008,07,02,07,18,13.20
2008,07,02,07,19,13.20
2008,07,02,07,20,13.20
2008,07,02,07,21,13.20
2008,07,02,07,22,13.30
2008,07,02,07,23,13.30
2008,07,02,07,24,13.40
2008,07,02,07,25,13.40
2008,07,02,07,26,13.50
2008,07,02,07,27,13.50
2008,07,02,07,28,13.50
2008,07,02,07,29,13.60
2008,07,02,07,30,13.60
2008,07,02,07,31,13.60
2008,07,02,07,32,13.60
2008,07,02,07,33,13.60
2008,07,02,07,34,13.60
2008,07,02,07,35,13.70
2008,07,02,07,36,13.70
2008,07,02,07,37,13.70
2008,07,02,07,38,13.80
2008,07,02,07,39,13.80
2008,07,02,07,40,13.90
2008,07,02,07,41,13.90
2008,07,02,07,42,13.90
2008,07,02,07,43,14.00
2008,07,02,07,44,14.10
2008,07,02,07,45,14.10
2008,07,02,07,46,14.10
2008,07,02,07,47,14.20
2008,07,02,07,48,14.20
2008,07,02,07,49,14.30
2008,07,02,07,50,14.30
2008,07,02,07,51,14.30
2008,07,02,07,52,14.40
2008,07,02,07,53,14.40
2008,07,02,07,54,14.50
2008,07,02,07,55,14.50
2008,07,02,07,56,14.60
2008,07,02,07,57,14.60
2008,07,02,07,58,14.70
2008,07,02,07,59,14.80
2008,07,02,08,00,14.90
2008,07,02,08,01,14.90
2008,07,02,08,02,15.00
2008,07,02,08,03,15.00
2008,07,02,08,04,15.00
2008,07,02,08,05,15.00
2008,07,02,08,06,15.00
2008,07,02,08,07,15.00
2008,07,02,08,08,14.90
2008,07,02,08,09,14.80
2008,07,02,08,10,14.70
2008,07,02,08,11,14.60
2008,07,02,08,12,14.60
2008,07,02,08,13,14.50
2008,07,02,08,14,14.40
2008,07,02,08,15,14.30
2008,07,02,08,16,14.20
2008,07,02,08,17,14.10
2008,07,02,08,18,14.00
2008,07,02,08,19,14.00
2008,07,02,08,20,14.00
2008,07,02,08,21,14.00
2008,07,02,08,22,14.00
2008,07,02,08,23,14.00
2008,07,02,08,24,13.90
2008,07,02,08,25,13.90
2008,07,02,08,26,13.80
2008,07,02,08,27,13.80
2008,07,02,08,28,13.70
2008,07,02,08,29,13.70
2008,07,02,08,30,13.70
2008,07,02,08,31,13.70
2008,07,02,08,32,13.60
2008,07,02,08,33,13.60
2008,07,02,08,34,13.60
2008,07,02,08,35,13.70
2008,07,02,08,36,13.60
2008,07,02,08,37,13.70
2008,07,02,08,38,13.60
2008,07,02,08,39,13.60
2008,07,02,08,40,13.60
2008,07,02,08,41,13.60
2008,07,02,08,42,13.60
2008,07,02,08,43,13.60
2008,07,02,08,44,13.70
2008,07,02,08,45,13.80
2008,07,02,08,46,13.80
2008,07,02,08,47,13.80
2008,07,02,08,48,13.80
2008,07,02,08,49,13.80
2008,07,02,08,50,13.80
2008,07,02,08,51,13.80
2008,07,02,08,52,14.00
2008,07,02,08,53,14.00
2008,07,02,08,54,14.10
2008,07,02,08,55,14.20
2008,07,02,08,56,14.20
2008,07,02,08,57,14.30
2008,07,02,08,58,14.30
2008,07,02,08,59,14.30
2008,07,02,09,00,14.30
2008,07,02,09,01,14.40
2008,07,02,09,02,14.50
2008,07,02,09,03,14.50
2008,07,02,09,04,14.60
2008,07,02,09,05,14.60
2008,07,02,09,06,14.60
2008,07,02,09,07,14.70
2008,07,02,09,08,14.70
2008,07,02,09,09,14.80
2008,07,02,09,10,14.80
2008,07,02,09,11,14.90
2008,07,02,09,12,14.90
2008,07,02,09,13,15.00
2008,07,02,09,14,15.00
2008,07,02,09,15,15.00
2008,07,02,09,16,15.00
2008,07,02,09,17,15.00
2008,07,02,09,18,15.00
2008,07,02,09,19,15.00
2008,07,02,09,20,15.10
2008,07,02,09,21,15.20
2008,07,02,09,22,15.20
2008,07,02,09,23,15.30
2008,07,02,09,24,15.40
2008,07,02,09,25,15.50
2008,07,02,09,26,15.70
2008,07,02,09,27,15.80
2008,07,02,09,28,15.90
2008,07,02,09,29,15.90
2008,07,02,09,30,16.10
2008,07,02,09,31,16.20
2008,07,02,09,32,16.40
2008,07,02,09,33,16.60
2008,07,02,09,34,16.80
2008,07,02,09,35,17.00
2008,07,02,09,36,17.20
2008,07,02,09,37,17.30
2008,07,02,09,38,17.40
2008,07,02,09,39,17.50
2008,07,02,09,40,17.60
2008,07,02,09,41,17.60
2008,07,02,09,42,17.60
2008,07,02,09,43,17.60
2008,07,02,09,44,17.60
2008,07,02,09,45,17.70
2008,07,02,09,46,17.70
2008,07,02,09,47,17.80
2008,07,02,09,48,17.90
2008,07,02,09,49,17.90
2008,07,02,09,50,18.00
2008,07,02,09,51,18.00
2008,07,02,09,52,18.10
2008,07,02,09,53,18.10
2008,07,02,09,54,18.10
2008,07,02,09,55,18.20
2008,07,02,09,56,18.30
2008,07,02,09,57,18.40
2008,07,02,09,58,18.50
2008,07,02,09,59,18.60
2008,07,02,10,00,18.70
2008,07,02,10,01,18.80
2008,07,02,10,02,18.90
2008,07,02,10,03,19.00
2008,07,02,10,04,19.00
2008,07,02,10,05,19.10
2008,07,02,10,06,19.10
2008,07,02,10,07,19.10
2008,07,02,10,08,19.00
2008,07,02,10,09,18.90
2008,07,02,10,10,18.90
2008,07,02,10,11,18.90
2008,07,02,10,12,18.80
2008,07,02,10,13,18.90
2008,07,02,10,14,18.90
2008,07,02,10,15,18.90
2008,07,02,10,16,19.00
2008,07,02,10,17,19.10
2008,07,02,10,18,19.10
2008,07,02,10,19,19.20
2008,07,02,10,20,19.20
2008,07,02,10,21,19.30
2008,07,02,10,22,19.30
2008,07,02,10,23,19.30
2008,07,02,10,24,19.20
2008,07,02,10,25,19.10
2008,07,02,10,26,19.10
2008,07,02,10,27,19.00
2008,07,02,10,28,19.00
2008,07,02,10,29,19.00
2008,07,02,10,30,19.00
2008,07,02,10,31,18.90
2008,07,02,10,32,18.90
2008,07,02,10,33,19.00
2008,07,02,10,34,19.00
2008,07,02,10,35,19.10
2008,07,02,10,36,19.20
2008,07,02,10,37,19.30
2008,07,02,10,38,19.30
2008,07,02,10,39,19.30
2008,07,02,10,40,19.30
2008,07,02,10,41,19.40
2008,07,02,10,42,19.50
2008,07,02,10,43,19.60
2008,07,02,10,44,19.80
2008,07,02,10,45,19.80
2008,07,02,10,46,19.90
2008,07,02,10,47,19.90
2008,07,02,10,48,19.90
2008,07,02,10,49,19.90
2008,07,02,10,50,19.90
2008,07,02,10,51,19.90
2008,07,02,10,52,19.90
2008,07,02,10,53,19.90
2008,07,02,10,54,19.90
2008,07,02,10,55,19.90
2008,07,02,10,56,19.90
2008,07,02,10,57,20.00
2008,07,02,10,58,20.10
2008,07,02,10,59,20.20
2008,07,02,11,00,20.30
2008,07,02,11,01,20.30
2008,07,02,11,02,20.30
2008,07,02,11,03,20.30
2008,07,02,11,04,20.30
2008,07,02,11,05,20.30
2008,07,02,11,06,20.40
2008,07,02,11,07,20.30
2008,07,02,11,08,20.30
2008,07,02,11,09,20.20
2008,07,02,11,10,20.10
2008,07,02,11,11,20.10
2008,07,02,11,12,20.10
2008,07,02,11,13,20.10
2008,07,02,11,14,20.10
2008,07,02,11,15,20.10
2008,07,02,11,16,20.00
2008,07,02,11,17,20.00
2008,07,02,11,18,20.00
2008,07,02,11,19,20.10
2008,07,02,11,20,20.10
2008,07,02,11,21,20.10
2008,07,02,11,22,20.20
2008,07,02,11,23,20.20
2008,07,02,11,24,20.10
2008,07,02,11,25,20.10
2008,07,02,11,26,20.20
2008,07,02,11,27,20.20
2008,07,02,11,28,20.20
2008,07,02,11,29,20.30
2008,07,02,11,30,20.30
2008,07,02,11,31,20.40
2008,07,02,11,32,20.50
2008,07,02,11,33,20.70
2008,07,02,11,34,20.80
2008,07,02,11,35,20.90
2008,07,02,11,36,20.90
2008,07,02,11,37,20.90
2008,07,02,11,38,21.00
2008,07,02,11,39,21.00
2008,07,02,11,40,21.00
2008,07,02,11,41,21.00
2008,07,02,11,42,21.00
2008,07,02,11,43,21.00
2008,07,02,11,44,21.00
2008,07,02,11,45,20.90
2008,07,02,11,46,21.00
2008,07,02,11,47,21.10
2008,07,02,11,48,21.20
2008,07,02,11,49,21.30
2008,07,02,11,50,21.30
2008,07,02,11,51,21.40
2008,07,02,11,52,21.40
2008,07,02,11,53,21.40
2008,07,02,11,54,21.40
2008,07,02,11,55,21.40
2008,07,02,11,56,21.30
2008,07,02,11,57,21.30
2008,07,02,11,58,21.20
2008,07,02,11,59,21.10
2008,07,02,12,00,21.10
2008,07,02,12,01,21.10
2008,07,02,12,02,21.10
2008,07,02,12,03,21.10
2008,07,02,12,04,21.10
2008,07,02,12,05,21.20
2008,07,02,12,06,21.20
2008,07,02,12,07,21.30
2008,07,02,12,08,21.30
2008,07,02,12,09,21.40
2008,07,02,12,10,21.40
2008,07,02,12,11,21.40
2008,07,02,12,12,21.40
2008,07,02,12,13,21.30
2008,07,02,12,14,21.40
2008,07,02,12,15,21.40
2008,07,02,12,16,21.40
2008,07,02,12,17,21.40
2008,07,02,12,18,21.40
2008,07,02,12,19,21.40
2008,07,02,12,20,21.50
2008,07,02,12,21,21.60
2008,07,02,12,22,21.60
2008,07,02,12,23,21.70
2008,07,02,12,24,21.70
2008,07,02,12,25,21.80
2008,07,02,12,26,21.80
2008,07,02,12,27,21.80
2008,07,02,12,28,21.80
2008,07,02,12,29,21.80
2008,07,02,12,30,21.80
2008,07,02,12,31,21.90
2008,07,02,12,32,22.00
2008,07,02,12,33,22.00
2008,07,02,12,34,22.00
2008,07,02,12,35,21.90
2008,07,02,12,36,21.90
2008,07,02,12,37,21.90
2008,07,02,12,38,22.10
2008,07,02,12,39,22.20
2008,07,02,12,40,22.20
2008,07,02,12,41,22.30
2008,07,02,12,42,22.30
2008,07,02,12,43,22.30
2008,07,02,12,44,22.30
2008,07,02,12,45,22.30
2008,07,02,12,46,22.30
2008,07,02,12,47,22.40
2008,07,02,12,48,22.40
2008,07,02,12,49,22.30
2008,07,02,12,50,22.30
2008,07,02,12,51,22.20
2008,07,02,12,52,22.30
2008,07,02,12,53,22.30
2008,07,02,12,54,22.30
2008,07,02,12,55,22.30
2008,07,02,12,56,22.30
2008,07,02,12,57,22.30
2008,07,02,12,58,22.20
2008,07,02,12,59,22.30
2008,07,02,13,00,22.30
2008,07,02,13,01,22.20
2008,07,02,13,02,22.10
2008,07,02,13,03,22.20
2008,07,02,13,04,22.20
2008,07,02,13,05,22.30
2008,07,02,13,06,22.50
2008,07,02,13,07,22.50
2008,07,02,13,08,22.50
2008,07,02,13,09,22.50
2008,07,02,13,10,22.50
2008,07,02,13,11,22.50
2008,07,02,13,12,22.60
2008,07,02,13,13,22.70
2008,07,02,13,14,22.70
2008,07,02,13,15,22.90
2008,07,02,13,16,23.00
2008,07,02,13,17,23.10
2008,07,02,13,18,23.10
2008,07,02,13,19,23.10
2008,07,02,13,20,23.10
2008,07,02,13,21,23.10
2008,07,02,13,22,23.00
2008,07,02,13,23,23.00
2008,07,02,13,24,22.90
2008,07,02,13,25,22.80
2008,07,02,13,26,22.80
2008,07,02,13,27,22.70
2008,07,02,13,28,22.60
2008,07,02,13,29,22.50
2008,07,02,13,30,22.30
2008,07,02,13,31,22.30
2008,07,02,13,32,22.40
2008,07,02,13,33,22.40
2008,07,02,13,34,22.40
2008,07,02,13,35,22.40
2008,07,02,13,36,22.40
2008,07,02,13,37,22.30
2008,07,02,13,38,22.30
2008,07,02,13,39,22.40
2008,07,02,13,40,22.50
2008,07,02,13,41,22.60
2008,07,02,13,42,22.70
2008,07,02,13,43,22.70
2008,07,02,13,44,22.80
2008,07,02,13,45,22.90
2008,07,02,13,46,22.90
2008,07,02,13,47,23.00
2008,07,02,13,48,23.00
2008,07,02,13,49,23.10
2008,07,02,13,50,23.30
2008,07,02,13,51,23.40
2008,07,02,13,52,23.50
2008,07,02,13,53,23.60
2008,07,02,13,54,23.60
2008,07,02,13,55,23.60
2008,07,02,13,56,23.60
2008,07,02,13,57,23.60
2008,07,02,13,58,23.60
2008,07,02,13,59,23.70
2008,07,02,14,00,23.70
2008,07,02,14,01,23.70
2008,07,02,14,02,23.80
2008,07,02,14,03,23.90
2008,07,02,14,04,23.90
2008,07,02,14,05,24.00
2008,07,02,14,06,24.00
2008,07,02,14,07,24.10
2008,07,02,14,08,24.20
2008,07,02,14,09,24.20
2008,07,02,14,10,24.20
2008,07,02,14,11,24.20
2008,07,02,14,12,24.20
2008,07,02,14,13,24.20
2008,07,02,14,14,24.20
2008,07,02,14,15,24.20
2008,07,02,14,16,24.20
2008,07,02,14,17,24.20
2008,07,02,14,18,24.20
2008,07,02,14,19,24.20
2008,07,02,14,20,24.20
2008,07,02,14,21,24.20
2008,07,02,14,22,24.30
2008,07,02,14,23,24.30
2008,07,02,14,24,24.20
2008,07,02,14,25,24.20
2008,07,02,14,26,24.10
2008,07,02,14,27,24.10
2008,07,02,14,28,24.20
2008,07,02,14,29,24.20
2008,07,02,14,30,24.20
2008,07,02,14,31,24.30
2008,07,02,14,32,24.40
2008,07,02,14,33,24.50
2008,07,02,14,34,24.60
2008,07,02,14,35,24.60
2008,07,02,14,36,24.70
2008,07,02,14,37,24.70
2008,07,02,14,38,24.70
2008,07,02,14,39,24.80
2008,07,02,14,40,24.90
2008,07,02,14,41,24.90
2008,07,02,14,42,25.00
2008,07,02,14,43,25.10
2008,07,02,14,44,25.20
2008,07,02,14,45,25.30
2008,07,02,14,46,25.30
2008,07,02,14,47,25.40
2008,07,02,14,48,25.40
2008,07,02,14,49,25.40
2008,07,02,14,50,25.40
2008,07,02,14,51,25.40
2008,07,02,14,52,25.50
2008,07,02,14,53,25.50
2008,07,02,14,54,25.50
2008,07,02,14,55,25.40
2008,07,02,14,56,25.30
2008,07,02,14,57,25.30
2008,07,02,14,58,25.30
2008,07,02,14,59,25.40
2008,07,02,15,00,25.40
2008,07,02,15,01,25.40
2008,07,02,15,02,25.40
2008,07,02,15,03,25.20
2008,07,02,15,04,25.00
2008,07,02,15,05,24.80
2008,07,02,15,06,24.60
2008,07,02,15,07,24.50
2008,07,02,15,08,24.30
2008,07,02,15,09,24.30
2008,07,02,15,10,24.20
2008,07,02,15,11,24.10
2008,07,02,15,12,24.00
2008,07,02,15,13,23.90
2008,07,02,15,14,23.80
2008,07,02,15,15,23.80
2008,07,02,15,16,23.70
2008,07,02,15,17,23.70
2008,07,02,15,18,23.60
2008,07,02,15,19,23.50
2008,07,02,15,20,23.50
2008,07,02,15,21,23.60
2008,07,02,15,22,23.60
2008,07,02,15,23,23.60
2008,07,02,15,24,23.60
2008,07,02,15,25,23.60
2008,07,02,15,26,23.60
2008,07,02,15,27,23.60
2008,07,02,15,28,23.60
2008,07,02,15,29,23.60
2008,07,02,15,30,23.60
2008,07,02,15,31,23.60
2008,07,02,15,32,23.60
2008,07,02,15,33,23.70
2008,07,02,15,34,23.80
2008,07,02,15,35,23.80
2008,07,02,15,36,23.90
2008,07,02,15,37,23.90
2008,07,02,15,38,24.00
2008,07,02,15,39,24.10
2008,07,02,15,40,24.20
2008,07,02,15,41,24.20
2008,07,02,15,42,24.30
2008,07,02,15,43,24.30
2008,07,02,15,44,24.30
2008,07,02,15,45,24.30
2008,07,02,15,46,24.30
2008,07,02,15,47,24.30
2008,07,02,15,48,24.30
2008,07,02,15,49,24.30
2008,07,02,15,50,24.40
2008,07,02,15,51,24.40
2008,07,02,15,52,24.50
2008,07,02,15,53,24.50
2008,07,02,15,54,24.60
2008,07,02,15,55,24.60
2008,07,02,15,56,24.60
2008,07,02,15,57,24.60
2008,07,02,15,58,24.60
2008,07,02,15,59,24.70
2008,07,02,16,00,24.70
2008,07,02,16,01,24.60
2008,07,02,16,02,24.60
2008,07,02,16,03,24.50
2008,07,02,16,04,24.50
2008,07,02,16,05,24.40
2008,07,02,16,06,24.40
2008,07,02,16,07,24.40
2008,07,02,16,08,24.40
2008,07,02,16,09,24.40
2008,07,02,16,10,24.30
2008,07,02,16,11,24.10
2008,07,02,16,12,24.10
2008,07,02,16,13,24.10
2008,07,02,16,14,24.00
2008,07,02,16,15,24.00
2008,07,02,16,16,23.90
2008,07,02,16,17,23.90
2008,07,02,16,18,23.90
2008,07,02,16,19,23.80
2008,07,02,16,20,23.80
2008,07,02,16,21,23.80
2008,07,02,16,22,23.80
2008,07,02,16,23,23.80
2008,07,02,16,24,23.80
2008,07,02,16,25,23.80
2008,07,02,16,26,23.80
2008,07,02,16,27,23.90
2008,07,02,16,28,24.00
2008,07,02,16,29,24.10
2008,07,02,16,30,24.10
2008,07,02,16,31,24.10
2008,07,02,16,32,24.10
2008,07,02,16,33,24.20
2008,07,02,16,34,24.20
2008,07,02,16,35,24.20
2008,07,02,16,36,24.30
2008,07,02,16,37,24.30
2008,07,02,16,38,24.30
2008,07,02,16,39,24.20
2008,07,02,16,40,24.20
2008,07,02,16,41,24.20
2008,07,02,16,42,24.20
2008,07,02,16,43,24.30
2008,07,02,16,44,24.30
2008,07,02,16,45,24.30
2008,07,02,16,46,24.30
2008,07,02,16,47,24.30
2008,07,02,16,48,24.30
2008,07,02,16,49,24.30
2008,07,02,16,50,24.30
2008,07,02,16,51,24.30
2008,07,02,16,52,24.30
2008,07,02,16,53,24.30
2008,07,02,16,54,24.40
2008,07,02,16,55,24.40
2008,07,02,16,56,24.50
2008,07,02,16,57,24.50
2008,07,02,16,58,24.50
2008,07,02,16,59,24.50
2008,07,02,17,00,24.60
2008,07,02,17,01,24.70
2008,07,02,17,02,24.70
2008,07,02,17,03,24.70
2008,07,02,17,04,24.70
2008,07,02,17,05,24.70
2008,07,02,17,06,24.80
2008,07,02,17,07,24.90
2008,07,02,17,08,25.00
2008,07,02,17,09,25.10
2008,07,02,17,10,25.10
2008,07,02,17,11,25.10
2008,07,02,17,12,25.10
2008,07,02,17,13,25.10
2008,07,02,17,14,25.10
2008,07,02,17,15,25.20
2008,07,02,17,16,25.30
2008,07,02,17,17,25.30
2008,07,02,17,18,25.40
2008,07,02,17,19,25.30